Flag for Australia Weather past 2 weeks in Cairns, Queensland, Australia

Now
73 °F

Scattered showers. Passing clouds.


Feels Like: 76 °F
Forecast: 72 / 85 °F
Wind: 13 mph from South

Location: Cairns Airport

Current Time: Oct 21, 2014 at 10:49:26 PM

Latest Report: Oct 21, 2014 at 10:00 PM


Visibility: N/A

Pressure: 30.12 "Hg

Humidity: 69%

Dew point: 63 °F

Location of CairnsLocation

Historic Weather in Cairns — Graph

°F

Cairns temperature yesterday

Maximum temperature yesterday: 82 °F (at 4:00 PM)
Minimum temperature yesterday: 70 °F (at 5:30 AM)
Average temperature yesterday: 74 °F

Past Weeks' High & Low Weather Summary

 TemperatureHumidityPressure
High90 °F (Oct 15, 12:00 PM)100% (Oct 14, 2:00 AM)32.52 "Hg (Oct 14, 2:00 AM)
Low64 °F (Oct 7, 5:00 AM)13% (Oct 15, 11:00 AM)29.83 "Hg (Oct 7, 3:00 PM)
Average76 °F67%29.98 "Hg
* Reported Oct 6 9:00 PM — Oct 21 9:30 PM, Cairns, Weather by CustomWeather, © 2014

Note: Actual official high and low records may vary slightly from our data, if they occured in-between our weather recording intervals... More about our weather records

Advertising

Cairns weather history for previous 24 hours

 ConditionsComfort  
Time TempWeatherWind HumidityBarometerVisibility
9:30 PM
Oct 21
73 °FSprinkles. Passing clouds.12 mph69%30.12 "HgN/A
9:00 PM73 °FSprinkles. Passing clouds.10 mph69%30.12 "HgN/A
8:30 PM73 °FPassing clouds.10 mph69%30.09 "HgN/A
8:00 PM73 °FScattered showers. Passing clouds.12 mph74%30.09 "HgN/A
7:30 PM72 °FSprinkles. Passing clouds.13 mph78%30.09 "HgN/A
7:00 PM72 °FScattered showers. Broken clouds.10 mph83%30.07 "HgN/A
6:30 PM72 °FSprinkles. Broken clouds.14 mph83%30.07 "HgN/A
6:00 PM75 °FScattered showers. Broken clouds.13 mph69%30.07 "HgN/A
5:30 PM77 °FScattered showers. Broken clouds.16 mph65%30.04 "HgN/A
5:00 PM77 °FScattered showers. Broken clouds.20 mph61%30.04 "HgN/A
4:30 PM79 °FScattered showers. Broken clouds.20 mph61%30.04 "HgN/A
4:00 PM81 °FScattered showers. Scattered clouds.21 mph58%30.01 "HgN/A
3:30 PM81 °FScattered clouds.21 mph54%30.01 "HgN/A
3:00 PM81 °FBroken clouds.21 mph54%30.04 "HgN/A
2:30 PM81 °FScattered clouds.23 mph54%30.04 "HgN/A
2:00 PM81 °FScattered showers. Scattered clouds.22 mph51%30.04 "HgN/A
1:30 PM82 °FScattered showers. Partly sunny.24 mph48%30.04 "HgN/A
1:00 PM82 °FScattered showers. Partly sunny.24 mph45%30.07 "HgN/A
12:30 PM84 °FPartly sunny.22 mph45%30.07 "HgN/A
12:00 PM82 °FPartly sunny.23 mph42%30.07 "HgN/A
11:30 AM84 °FPartly sunny.22 mph43%30.07 "HgN/A
11:00 AM82 °FPassing clouds.20 mph42%30.07 "HgN/A
10:30 AM82 °FScattered clouds.22 mph48%30.09 "HgN/A
10:00 AM81 °FScattered clouds.22 mph51%30.09 "HgN/A
9:30 AM77 °FScattered showers. Scattered clouds.15 mph65%30.09 "HgN/A
9:00 AM77 °FBroken clouds.10 mph61%30.09 "HgN/A
8:30 AM75 °FBroken clouds.12 mph65%30.09 "HgN/A
8:00 AM73 °FPartly sunny.10 mph69%30.09 "HgN/A
7:00 AM72 °FScattered showers. Scattered clouds.12 mph69%30.07 "HgN/A
6:00 AM70 °FScattered showers. Passing clouds.10 mph78%30.04 "HgN/A
5:00 AM70 °FMostly cloudy.9 mph78%30.04 "HgN/A
4:30 AM70 °FSprinkles. Passing clouds.7 mph78%30.04 "HgN/A
4:00 AM70 °FPassing clouds.8 mph78%30.04 "HgN/A
3:30 AM68 °FScattered showers. Passing clouds.9 mph83%30.04 "HgN/A
3:00 AM70 °FSprinkles. Passing clouds.15 mph78%30.04 "HgN/A
2:30 AM72 °FPassing clouds.9 mph69%30.04 "HgN/A
2:00 AM72 °FPassing clouds.10 mph69%30.04 "HgN/A
1:30 AM72 °FPassing clouds.10 mph69%30.04 "HgN/A
1:00 AM72 °FPassing clouds.12 mph69%30.07 "HgN/A
12:30 AM72 °FPassing clouds.8 mph73%30.07 "HgN/A
12:00 AM72 °FPassing clouds.9 mph73%30.07 "HgN/A
11:30 PM
Oct 20
72 °FScattered showers. Passing clouds.10 mph73%30.09 "HgN/A
11:00 PM72 °FPassing clouds.8 mph78%30.09 "HgN/A
10:30 PM70 °FPassing clouds.9 mph83%30.09 "HgN/A
10:00 PM72 °FPassing clouds.10 mph73%30.09 "HgN/A
Weather by CustomWeather, © 2014

See weather overviewHow to use our weather pages